Regional Weather Roundup
Issued by NWS Nashville, TN

Home | Current Version | Previous Version | Text Only | Print | Product List | Glossary On
Versions: 1 2 3 4 5 6 7 8 9 10 11 12 13 14 15 16 17 18 19 20 21 22 23 24 25 26 27
000
ASUS44 KOHX 221810
RWROHX
MIDDLE TENNESSEE HOURLY WEATHER ROUNDUP
NATIONAL WEATHER SERVICE NASHVILLE TN
100 PM CDT TUE AUG 22 2017

NOTE: "FAIR" INDICATES FEW OR NO CLOUDS BELOW 12,000 FEET WITH
NO SIGNIFICANT WEATHER AND/OR OBSTRUCTIONS TO VISIBILITY.

* THESE REPORTS ARE NOT UNDER NWS QUALITY CONTROL AND MAY NOT
  REPORT WEATHER SUCH AS PRECIPITATION AND FOG.


TNZ005>011-023>034-057-059-062>066-078-080-221900
...NORTHERN MIDDLE TENNESSEE...

CITY           SKY/WX    TMP DP  RH WIND       PRES   REMARKS
CLARKSVILLE    CLOUDY    87  72  60 W10G18    30.00F HX  93
CROSSVILLE     MOSUNNY   84  67  56 W9        30.13F
GALLATIN       PTSUNNY   90  73  58 VRB5      30.03F HX  98
DICKSON        CLOUDY    89  72  57 W13       30.03F HX  96
LEBANON        CLOUDY    89  71  55 NW10      30.01F HX  95
NASHVILLE      LGT RAIN  79  70  74 W6G16     30.04F
PORTLAND       MOSUNNY   88  73  62 SW9G15    30.00F HX  96
SMYRNA         MOSUNNY   92  74  55 SW13      30.03F HX 101
SPARTA         MOSUNNY   88  72  58 SW8G18    30.05F HX  94
SPRINGFIELD    SUNNY     88  75  66 W12       29.99F HX  97
WEST NASHVILLE SUNNY     88  75  66 SW9       30.00F HX  97
$$
TNZ056-058-060-061-075>077-079-093>097-221900
...SOUTHERN MIDDLE TENNESSEE...

CITY           SKY/WX    TMP DP  RH WIND       PRES   REMARKS
COLUMBIA       MOSUNNY   84  75  74 SW9       30.03F HX  92
FAYETTEVILLE   MOSUNNY   88  70  55 SW10      30.08F HX  92
MCMINNVILLE    SUNNY     90  73  58 SW9       30.08F HX  98
MURFREESBORO   MOSUNNY   91  71  51 S10       30.03F HX  97
PULASKI        SUNNY     91  72  52 SW6       30.06F HX  98
SHELBYVILLE    MOSUNNY   90  72  55 S10       30.06F HX  96
TULLAHOMA      MOSUNNY   88  66  48 W10       30.10F HX  90
WINCHESTER     SUNNY     90  72  55 SW10      30.09F HX  96
$$


...KEY TO REMARKS...
VSB - VISIBILITY IN MILES
WCI - WIND CHILL INDEX
HX  - HEAT INDEX





USA.gov is the U.S. government's official web portal to all federal, state and local government web resources and services.